Погода в Витебске

Погода в Витебске : погода сейчас, прогноз погоды и архив. Всё, что Вы хотите узнать о погоде в Витебске!

Поиск расширенной информации на нашем сайте:

Другие новости

Новости СМИ2

Главная страница сайта

Новости сайта

03.07.2017

Напоминаем, что на нашем специализированном сайте Метеоцентр.Азия вы можете получить высокодетализированные автоматические прогнозы погоды по пунктам России, СНГ и мира в авиационном формате (включающие направление и скорость ветра, видимость, явления погоды, количество и форму облачности, нижнюю и верхнюю границу облачности).

Рекомендуем: Изготовление информационных табличек изготовление табличек ростов.

Погода в Витебске - сегодня

Время (UTC), дата Ветер
(°,м/с) 
Видим.   Явления Облачность Т
(°С)
Тd
(°С)
f(%) Тe
(°С)
Pmin
(гПа)
dP
(гПа)
Po
(мм)
O2
(г/м3)
Тmin Tmax R s Состояние
почвы
09 18.07.17 260 (З) 10 км    5/5 1000 м 
[Cu med, cong]
+19 +8.6 51 +20  1017.2  0.1  748  280           
12 18.07.17 270 (З) 10 км    5/5 1000 м 
[Cu med, cong]
+19.4 +8 48 +20  1016.7  -0.4  747  280           
15 18.07.17 260 (З) 10 км    8/5 1000 м средняя 
[Cu med, cong|Ac trans]
+20 +8.2 46 +20  1016.5  -0.2  747  279           
18 18.07.17 240 (ЮЗ) 10 км    8/0 средняя 
[Ac lent]
+17.6 +10 61 +19  1016.8  0.1  747  281    +21.4       
21 18.07.17 240 (ЮЗ) 10 км    8/0 средняя 
[Ac trans]
+15.6 +11.5 77 +20  1017.3  0.4  747  283           
00 19.07.17 230 (ЮЗ) 10 км    4/0 средняя 
[Ac lent]
+13.7 +10.9 83 +16  1017.6  0.1  748  285           
03 19.07.17 240 (ЮЗ) 10 км    8/3 1000 м средняя, верхняя 
[Sc|Ac lent|Ci fib]
+12.5 +10.4 87 +16  1018.1  0.5  748  286           
06 19.07.17 250 (З) 10 км    3/0 средняя 
[Ac trans]
+15.2 +11.5 79 +19  1018.5  0.5  748  283  +12.2         
09 19.07.17 280 (З) 10 км    9/8 800 м верхняя 
[Cu med, cong|Ci fib]
+18.3 +10 58 +20  1018.5  0.2  748  281           
12 19.07.17 280 (З) 10 км    9/6 1000 м верхняя 
[Cu med, cong|Ci fib]
+20.5 +8.2 45 +21  1017.6  -0.6  748  279           
15 19.07.17 250 (З) 10 км    8/4 1000 м верхняя 
[Cu med, cong|Ci fib]
+21.3 +9.9 48 +22  1016.7  -0.9  747  278           
18 19.07.17 тихо ()   10 км    4/0 верхняя 
[Cs]
+17.9 +11.5 66 +21  1016.7  -0.2  747  280    +21.5       
21 19.07.17 тихо ()   10 км    3/0 средняя 
[Ac trans]
+15.8 +10.5 71 +18  1016.8  -0.1  747  283           
00 20.07.17 тихо ()   10 км    ясно 
+10.6 +9.2 91 +11  1016.7  -0.4  747  288           
03 20.07.17 тихо ()   8000 м  дымка  4/0 верхняя 
[Ci fib]
+9.6 +8.8 95 +10  1016.1  -0.7  746  289           
06 20.07.17 180 (Ю) 10 км    5/0 верхняя 
[Ci]
+18.2 +9.9 58 +20  1015  -0.5  746  280  +9.1         
09 20.07.17 180 (Ю) 10 км    8/5 1000 м верхняя 
[Cu med, cong|Cs]
+21.4 +10.6 50 +23  1014  -0.8  745  277           
12 20.07.17 220 (ЮЗ) 4{12}  7000 м  слаб. ливневой дождь  9/5 600 м кучево-дожд., средняя 
[Cb cap|Ac As]
+17.2 +13.1 77 +23  1013.9  -0.4  745  280         
15 20.07.17 230 (ЮЗ) 3{10}  10 км  {ливн. осадки}  8/3 1000 м средняя, верхняя 
[Cu med, cong|Ac trans|Ci]
+20.7 +11.8 57 +25  1011.6  -1.9  744  276         
18 20.07.17 тихо ()   10 км  {ливн. осадки}  8/4 1000 м верхняя 
[Sc diur, vesp|Cs]
+18.6 +13.7 73 +25  1011.8  744  278    +23.7     
21 20.07.17 тихо ()   10 км    6/0 средняя 
[Ac As]
+14.8 +12.8 88 +20  1012.9  0.8  744  282           
00 21.07.17 тихо ()   10 км    8/8 1470 м 
[Sc]
+12.9 +11.8 93 +17  1013.1  0.1  744  284           
03 21.07.17 тихо ()   5000 м  дымка  8/0 средняя, верхняя 
[Ac cast|Cs]
+12.1 +11.5 96 +15  1013.4  0.2  744  285           
06 21.07.17 010 (С) 10 км    5/0 средняя, верхняя 
[Ac trans|Ci fib]
+16.6 +12.8 78 +22  1014.1  745  281  +11.7         
09 21.07.17 030 (СВ) 10 км    6/4 1000 м верхняя 
[Cu med, cong|Ci fib]
+20.6 +10.7 53 +23  1014.7  0.9  746  277           
Время (UTC), дата Ветер
(°,м/с) 
Видим.   Явления Облачность Т
(°С)
Тd
(°С)
f(%) Тe
(°С)
Pmin
(гПа)
dP
(гПа)
Po
(мм)
O2
(г/м3)
Тmin Tmax R s Состояние
почвы

Для получения пояснительной информации подведите курсор к названию столбца.

ПОГОДА в Витебске - архив

Всё, что Вы хотите узнать о погоде в Витебске - удобно и подробно!

Выберите нужную дату (начиная с 1 января 2015* года) и нажмите кнопку "Найти".
Будут отображены архивные сводки погоды по пункту Витебск, начиная с указанной даты.


Отображать данные в формате CSV (для использования в таблицах Excel)


Внимание! Наш архив погоды предназначен исключительно для личного некоммерческого использования в познавательных целях. Если Вам необходимы официальные справки о состоянии погоды (для производственных, юридических, коммерческих и т.п. целей), обращайтесь в органы Росгидромета.

*Примечание: данная дата относится к архиву по метеостанциям СССР (Россия, СНГ, Балтия).
Архив по метеостанциям Зарубежной Европы и Азии (кроме Китая) хранится 10 дней, по другим регионам земного шара (Китай, Африка, Америка, Австралия, Океания) - 1 день.

Витебск - район местоположения метеостанции


Название, широта, долгота, высота метеостанции:
Витебск (город) 55.1°ш. 30.3°д. 170 м над ур. моря [Беларусь]

Дополнительная информация

В oтличие oт бoльшинства пoгoдных сайтoв мы публикуем пoдрoбную метеoинфoрмацию в детальнoм прoфессиoнальнoм фoрмате.

Характеристики температуры и влажнoсти вoздуха измеряются на высoте 2 м в тени вдали oт зданий и деревьев.
Скoрoсть ветра измеряется на высoте 10 м (на урoвне рoста челoвека скoрoсть ветра ниже в 1.5-2 раза). Если метеoстанция нахoдится в гoрoде или в лесу, тo скoрoсть ветра занижена на 2-4 м/с пo сравнению с oткрытым местoм. Скoрoсть ветра над акватoриями крупных рек и oзёр, а также на вершинах хoлмoв на 2-5 м/с выше, чем в oбычных услoвиях.
Атмoсфернoе давление в разных тoчках местнoсти мoжет значительнo oтличаться oт давления на метеoстанции, в зависимoсти oт услoвий рельефа (при пoдъёме на 10 м давление пoнижается примернo на 1 мм рт.ст.).